Overview Statistics Trail Chart Weather Telemetry Raw packets
 

This is the latest recevied weather packets stored in our database for station/object KC4JIR. If no packets are shown the sender has not sent any weather packets the latest 10 day(s).

<< 58 59 60 61 62 63 64 >>
Time Temp. Humidity Pressure Rain* Wind** Luminosity Snow
1788211219 33.89° C 58% 1014.9 hPa 0 mm - 314 W/m² -
1788210914 34.44° C 57% 1015.1 hPa 0 mm - 368 W/m² -
1788210613 34.44° C 57% 1015.1 hPa 0 mm - 370 W/m² -
1788210308 33.89° C 57% 1015.1 hPa 0 mm - 387 W/m² -
1788210004 33.89° C 58% 1015.1 hPa 0 mm - 377 W/m² -
1788209699 33.33° C 65% 1015.1 hPa 0 mm - 401 W/m² -
1788209395 33.33° C 61% 1015 hPa 0 mm - 53 W/m² -
1788209089 35° C 58% 1014.9 hPa 0 mm - 337 W/m² -
1788208787 35° C 57% 1015.1 hPa 0 mm - 511 W/m² -
1788208482 35° C 61% 1015.1 hPa 0 mm - 500 W/m² -
1788208180 35° C 58% 1015.2 hPa 0 mm - 484 W/m² -
1788207876 34.44° C 57% 1015.2 hPa 0 mm - 515 W/m² -
1788207570 33.89° C 64% 1015 hPa 0 mm - 544 W/m² -
1788207268 33.89° C 61% 1015.2 hPa 0 mm - 586 W/m² -
1788206965 34.44° C 57% 1015.1 hPa 0 mm - 305 W/m² -
1788206664 34.44° C 57% 1015.3 hPa 0 mm - 592 W/m² -
1788206353 35° C 56% 1015.3 hPa 0 mm - 578 W/m² -
1788206049 33.89° C 58% 1015.6 hPa 0 mm - 554 W/m² -
1788205744 33.33° C 57% 1015.7 hPa 0 mm - 572 W/m² -
1788205439 33.33° C 57% 1015.6 hPa 0 mm - 590 W/m² -
1788205139 33.89° C 57% 1015.7 hPa 0 mm - 608 W/m² -
1788204835 33.89° C 58% 1016 hPa 0 mm - 600 W/m² -
1788204530 33.89° C 58% 1015.9 hPa 0 mm - 612 W/m² -
1788204230 33.89° C 62% 1016 hPa 0 mm - 631 W/m² -
1788203925 33.33° C 64% 1015.9 hPa 0 mm - 637 W/m² -

* Rain latest hour (hover to see other rain measurements)
** Current wind speed in m/s (hover to see current wind gust speed)